Location: Most
(50.5133°N, 13.6207°E)
Time: 10:02:51
(UTC+01:00)

Oscar 11 - Pass Details

Date: 03 December 2022
Orbit: 611 x 621 km, 97.6° (Epoch: 28 January)

Event Time Altitude Azimuth Distance (km) Brightness Sun altitude
Rises 16:39:18 0° 196° (SSW) 2,880 11.2 -5.7°
Reaches altitude 10° 16:41:46 10° 209° (SSW) 1,978 10.7 -6.0°
Maximum altitude 16:45:24 26° 266° (W) 1,219 9.5 -6.5°
Drops below altitude 10° 16:49:03 10° 324° (NW) 1,987 9.8 -7.1°
Sets 16:51:33 0° 337° (NNW) 2,896 10.5 -7.4°
